Location: Lynch Observatory
(39.9540°N, 75.1861°W)
Time: 06:57:42
(UTC-04:00)

OTV 5 (USA 277) - Visible Passes

Search period start: 22 July 2018 00:00
Search period end: 01 August 2018 00:00
Orbit: 312 x 321 km, 54.5° (Epoch: 05 July)

Date Brightness Start Highest point End Pass type
(mag) Time Alt. Az. Time Alt. Az. Time Alt. Az.
28 Jul ? 04:21:34 10° SE 04:22:17 11° SE 04:23:01 10° ESE visible
29 Jul ? 04:35:23 21° S 04:36:30 30° SE 04:38:57 10° ENE visible
30 Jul ? 04:49:27 24° SW 04:50:53 78° NW 04:53:35 10° NE visible
31 Jul ? 03:32:35 13° E 03:32:35 13° E 03:33:11 10° E visible
31 Jul ? 05:03:28 13° W 05:05:24 27° NW 05:07:47 10° NNE visible
